Regional Weather Roundup
Issued by NWS State College, PA

Home | Current Version | Previous Version | Text Only | Print | Product List | Glossary Off
Versions: 1 2 3 4 5 6 7 8 9 10 11 12 13 14 15 16 17 18 19 20 21 22 23 24 25 26 27 28 29 30 31 32 33 34 35 36 37 38 39 40 41 42 43 44 45 46 47 48 49 50

000
ASUS41 KCTP 172203
RWRCTP

REGIONAL WEATHER ROUNDUP
NATIONAL WEATHER SERVICE STATE COLLEGE PA
500 PM EST SAT FEB 17 2018

Note: "fair" indicates few or no clouds below 12,000 feet with no
significant weather and/or obstructions to visibility.

* = STATION THAT DOES NOT REPORT PRECIPITATION /E.G. RAIN...SNOW...ETC/
    THUNDER OR FOG.

PAZ002>004-007>009-013>016-020>023-029>032-172300-
WESTERN PENNSYLVANIA

CITY           SKY/WX    TMP DP  RH WIND       PRES   REMARKS
ERIE           CLOUDY    32  20  61 S7        30.01F
MEADVILLE      CLOUDY    29  21  72 VRB3      29.97F
FRANKLIN*      SNOW      27  25  92 CALM      29.99F VSB 1/2
NEW CASTLE     SNOW      30  28  92 CALM      30.01F VSB 1/2
BEAVER COUNTY  LGT SNOW  30  28  93 CALM      29.99F VSB 1
BUTLER*        LGT SNOW  31  30  96 SE6       30.00F FOG
PITTSBURGH INT LGT SNOW  32  31  96 S6        29.99F VSB 3/4
PITTSBURGH     SNOW      31  29  92 SE8       30.00S VSB 1/2
INDIANA*       FOG       30  30 100 S8        30.06S VSB 1/4
LATROBE        SNOW      32  32 100 CALM      30.04R VSB 1/2
WASHINGTON CO* SNOW      32  31  96 CALM      30.04F VSB 1/2
$$

PAZ004>006-010>012-017>019-024>028-033>037-041-042-045-046-049>053-172300-
CENTRAL PENNSYLVANIA

CITY           SKY/WX    TMP DP  RH WIND       PRES   REMARKS
BRADFORD       LGT SNOW  27  23  85 S7        29.97F VSB 1
DUBOIS         SNOW      28  25  88 SE6       29.99S VSB 1/2
CLEARFIELD     SNOW      29  27  92 S5        30.04S VSB 1/2
JOHNSTOWN      SNOW      27  24  89 S7        29.99S VSB 1/2
ALTOONA        SNOW      29  26  89 VRB5      30.06F VSB 1/4
STATE COLLEGE  SNOW      28  28 100 S3        30.08F VSB 1/2
WILLIAMSPORT   SNOW      31  28  89 E10       30.12F VSB 1/2
SELINSGROVE    SNOW      30  28  92 S7        30.15F VSB 1/2
FT INDIANTOWN  SNOW      30  30 100 SE5       30.19S VSB 3/8
CAPITAL CITY   SNOW      33  31  92 SE7       30.17F VSB 1/4
HARRISBURG     SNOW      33  30  88 SE6       30.17F VSB 1/4
YORK           SNOW      32  31  96 SE5       30.16F VSB 1/2
$$

PAZ038>040-043-044-047-048-054-055-060>062-067>071-172300-
EASTERN PENNSYLVANIA

CITY           SKY/WX    TMP DP  RH WIND       PRES   REMARKS
SCRANTON       LGT SNOW  30  26  85 VRB5      30.15R VSB 3/4
MOUNT POCONO   NOT AVBL
ALLENTOWN      LGT SNOW  38  23  55 S7G22     30.21R
QUAKERTOWN*    MOCLDY    37  23  56 CALM      30.20R
READING        SNOW      32  30  92 S5        30.22R VSB 1/2
LANCASTER      SNOW      32  29  88 SE5       30.20S VSB 1/2
COATESVILLE    LGT SNOW  34 N/A N/A S13G20    30.19R
POTTSTOWN      LGT SNOW  34  24  67 SW8       30.23R
BLUE BELL      CLOUDY    37  28  70 S8        30.22R
DOYLESTOWN     CLOUDY    38  25  59 S8        30.19R
WILLOW GROVE   NOT AVBL
NORTH PHILA    CLOUDY    41  29  62 S13G20    30.22F
PHILADELPHIA   FLURRIES  39  28  64 S9        30.23S
$$



USA.gov is the U.S. government's official web portal to all federal, state and local government web resources and services.